Wind_Speed
25 24 25 26 27 27 26 25 26 30 34 37 41 43 43 40 37 35 34 33 33 33 33 32 30 30 30 29 28 26 25 25 25 24 24 24 24 23 23 23 23 23 23 23 24 24 24 24 24 23 22 21 19 17 16 14 12 9 8 6 6 6 6 7 7 9 10 11 11 12 11 11 10 9 8 7 7 7 7 7 8 8 9 11 13
22 22 24 27 28 26 25 25 28 32 36 39 42 43 42 39 37 35 34 34 34 34 33 31 30 30 30 28 27 26 25 25 25 25 24 23 22 22 22 22 22 23 23 24 24 24 24 24 24 24 23 21 18 16 14 12 9 7 5 5 5 5 6 7 8 9 9 10 9 9 8 6 5 4 4 3 3 4 4 4 5 6 8 9 11
21 22 24 27 26 23 24 27 31 35 38 40 42 43 42 39 37 35 34 34 34 34 33 31 30 30 29 28 26 25 25 25 25 24 23 22 20 20 21 22 22 23 24 24 24 24 25 25 25 25 23 21 18 15 12 10 7 5 4 4 5 6 6 7 7 8 7 7 6 4 3 3 2 2 2 2 3 3 4 4 6 7 9 11 13
22 23 24 25 24 24 26 30 33 36 39 41 42 42 41 39 36 35 35 35 35 34 33 31 31 30 29 27 25 25 25 24 24 23 22 21 21 21 21 22 23 23 24 24 24 24 25 25 25 25 23 20 16 12 10 7 4 4 4 5 6 7 7 6 6 5 4 3 2 1 1 1 1 1 2 2 3 4 5 7 8 9 11 14 16
22 23 23 25 25 27 29 32 34 37 39 41 41 41 40 38 36 35 35 35 35 33 32 31 31 31 28 26 24 24 23 23 23 23 22 22 22 22 22 22 23 24 24 24 24 24 25 25 25 25 23 19 14 10 7 5 4 4 5 6 7 7 6 3 3 2 2 2 3 3 3 3 2 2 3 4 5 7 8 9 10 12 14 17 19
22 23 23 25 27 29 30 33 35 37 40 41 40 40 39 38 36 35 35 35 34 33 32 31 31 30 27 24 22 21 22 22 22 22 22 21 21 21 21 22 23 24 24 25 25 25 25 25 25 24 22 18 13 8 5 4 5 5 6 7 7 6 2 1 2 3 3 3 4 3 2 1 2 4 5 7 8 9 10 11 12 14 16 19 22
22 23 24 26 28 30 32 34 36 39 41 40 40 39 39 37 36 35 35 35 34 32 32 31 30 28 25 22 19 19 21 22 21 20 19 19 19 20 21 22 23 24 24 25 25 25 25 25 24 23 21 17 11 7 5 5 5 6 6 6 6 4 1 3 4 5 4 3 3 2 2 4 5 6 8 9 10 11 12 13 15 17 19 22 25
22 22 24 27 30 31 33 35 37 40 41 40 39 39 38 37 36 35 35 34 33 32 31 31 29 26 23 19 16 16 19 20 20 19 19 20 21 22 23 24 24 25 24 24 24 24 24 24 24 22 20 15 10 6 6 6 6 6 6 5 4 3 3 4 6 7 5 5 4 5 6 7 8 9 10 11 13 14 15 16 18 20 24 26 28
21 21 26 30 32 33 34 36 39 41 42 41 39 39 38 37 36 35 34 33 32 32 31 30 28 24 21 18 15 14 17 18 19 19 21 22 24 26 27 28 28 28 27 25 24 24 24 24 23 21 19 15 9 7 8 6 6 5 5 5 4 3 4 5 8 9 7 7 8 8 9 9 10 11 12 14 16 17 17 19 22 25 28 29 30
22 24 29 31 33 34 35 37 39 41 41 40 39 38 37 37 36 34 34 32 32 31 30 29 25 22 20 17 15 13 15 17 18 19 21 23 25 27 29 30 31 30 29 28 26 24 23 23 23 21 18 14 10 8 9 7 5 5 5 4 3 4 4 6 8 9 9 10 10 11 11 12 12 13 15 17 19 21 23 26 29 31 31 32 33
23 25 29 31 33 34 36 38 39 40 41 40 38 37 37 36 35 34 33 32 31 30 28 26 23 20 18 17 15 12 14 17 18 18 20 23 25 28 30 31 32 32 30 29 27 26 24 24 24 22 18 14 11 8 10 9 6 5 5 5 4 4 5 6 8 9 11 12 12 13 14 14 15 16 18 20 23 28 32 34 35 35 35 35 35
26 27 30 33 34 35 37 39 39 39 40 39 38 37 37 36 35 33 33 31 30 28 25 23 20 18 17 16 14 11 13 16 18 18 19 23 27 29 30 31 33 33 32 30 29 27 26 25 25 23 19 14 11 9 11 11 9 7 7 7 7 7 8 9 10 11 13 15 16 18 19 20 21 21 23 26 32 37 38 39 38 37 37 36 37
29 30 33 35 36 37 38 39 37 37 40 39 38 37 36 36 35 33 32 31 28 25 22 20 19 18 17 16 14 12 12 16 18 18 20 24 30 33 33 33 33 32 31 31 30 29 27 26 25 25 22 16 12 10 12 12 12 11 11 11 12 13 14 15 16 18 20 22 24 25 27 29 30 30 32 36 39 40 40 39 39 38 37 38 38
31 32 34 36 38 38 39 39 36 36 39 39 38 37 36 36 35 33 32 30 26 22 20 19 19 19 18 17 15 14 14 16 18 20 23 27 33 36 36 35 34 33 31 30 31 31 30 27 25 24 24 19 14 11 12 13 14 15 15 16 17 18 19 21 23 25 27 29 30 32 33 34 34 35 36 38 39 39 39 39 38 38 39 39 39
33 35 37 39 40 39 39 39 36 35 39 39 38 36 36 37 34 33 32 29 25 21 19 19 19 21 20 20 19 19 19 20 21 24 26 30 35 38 37 37 35 33 32 30 31 31 31 29 26 23 22 21 17 13 13 15 16 17 18 19 20 21 23 25 27 29 30 32 33 34 35 35 35 36 37 38 39 39 40 40 39 40 41 41 42
35 39 41 41 39 39 39 39 35 35 38 39 37 36 36 37 34 33 31 27 23 20 19 19 20 22 23 24 24 25 25 25 26 27 29 32 37 38 37 37 36 34 33 32 32 32 32 30 28 25 21 20 18 15 14 16 18 19 20 21 22 23 25 27 28 30 32 33 35 36 37 37 38 39 40 41 42 42 43 43 43 43 43 44 45
37 40 41 40 39 40 40 38 35 34 38 38 37 36 37 36 32 30 27 24 22 20 19 21 22 23 25 26 27 28 28 28 29 30 32 35 37 37 37 37 36 35 34 34 33 33 33 32 30 27 24 20 18 16 15 16 18 20 21 22 23 25 26 28 30 31 33 35 37 38 39 40 40 41 42 43 44 44 45 46 46 47 46 47 48
39 40 40 39 40 40 39 38 35 34 36 37 37 37 38 35 28 24 23 22 22 21 21 22 23 24 26 28 30 30 30 30 31 32 34 36 37 37 36 35 36 35 34 34 34 34 34 34 33 30 27 24 21 18 17 17 18 20 21 22 24 25 27 29 31 33 35 37 38 40 41 41 41 42 43 44 45 45 47 48 49 49 49 49 50
42 41 41 41 40 40 40 39 36 35 36 36 37 38 38 33 25 22 23 22 22 22 24 25 24 25 27 30 32 32 32 32 33 34 35 37 38 37 35 35 35 35 34 34 33 33 33 34 34 32 30 27 24 22 20 19 19 21 22 23 24 25 27 29 31 33 35 37 39 41 42 42 42 43 44 45 45 46 48 49 50 51 52 52 52
45 43 43 42 42 43 42 40 38 36 36 36 37 37 36 30 26 25 25 24 23 24 27 28 27 27 28 30 32 32 33 34 35 36 37 38 38 37 36 34 34 34 34 33 32 33 33 34 35 34 32 29 27 25 23 22 22 23 24 25 26 27 29 30 32 34 36 38 40 42 42 43 43 44 45 47 47 48 50 51 52 53 54 55 55
47 45 45 45 44 45 44 42 40 37 37 37 36 36 34 31 29 28 27 26 25 25 27 28 28 27 28 29 30 31 32 33 35 37 38 39 38 37 36 34 33 34 33 33 32 33 33 34 35 35 33 31 29 28 27 26 25 26 27 28 29 30 31 32 34 36 37 39 41 42 43 44 45 45 46 48 49 50 52 53 54 55 57 57 57
49 48 48 47 47 47 45 44 42 39 38 37 36 36 36 33 31 29 27 26 26 25 25 26 26 26 27 28 29 30 32 34 36 37 38 38 38 37 36 34 33 33 34 33 33 33 34 35 35 35 35 33 31 30 30 29 29 29 30 31 32 32 33 34 36 37 39 40 43 43 43 45 46 46 48 50 51 51 53 54 55 57 59 60 60
51 51 50 50 50 49 47 45 43 41 39 38 35 35 36 33 30 28 26 25 24 23 24 24 25 27 28 30 32 33 35 36 37 37 38 38 38 37 36 35 34 34 34 34 34 34 34 35 35 36 35 34 32 32 32 32 32 31 32 33 33 34 35 36 37 39 40 43 45 45 45 47 47 47 49 51 52 52 54 56 57 59 60 61 62
53 52 52 53 52 49 47 45 43 42 40 38 35 34 34 30 26 25 25 24 23 23 24 26 28 30 32 33 35 36 37 38 38 38 38 38 38 37 37 37 36 35 34 34 35 34 35 36 36 36 36 35 34 34 34 33 33 33 33 34 35 35 36 37 39 40 42 44 46 47 47 48 49 49 51 53 54 55 56 58 59 61 61 62 62
54 53 53 52 50 49 47 44 43 42 40 37 34 33 32 28 25 25 26 26 26 27 28 31 32 34 35 36 37 37 38 39 39 39 38 38 38 38 38 38 38 37 35 34 35 35 35 36 36 36 36 36 35 35 35 35 35 35 36 36 36 37 38 39 40 41 43 45 47 48 49 50 51 51 52 54 56 58 59 60 61 62 63 63 62
54 54 53 51 50 49 46 42 42 41 38 35 33 32 30 27 26 27 27 29 31 32 34 36 37 37 37 37 38 39 40 40 39 39 39 39 39 40 40 39 39 38 37 36 35 35 36 36 36 37 36 36 35 36 36 36 37 38 38 38 38 39 40 41 42 43 45 47 49 50 50 51 52 53 54 57 58 60 61 62 63 63 64 64 64
55 53 51 50 49 47 43 41 41 39 35 32 31 31 30 29 30 31 33 35 38 38 38 39 39 38 37 39 40 41 41 41 40 39 40 40 40 40 40 40 39 39 38 37 36 36 37 37 37 37 36 36 36 37 37 38 39 40 40 40 41 41 42 42 43 44 46 49 50 50 51 52 54 56 57 59 60 61 62 63 64 64 64 65 65
55 53 50 49 47 43 40 39 39 37 35 33 33 34 35 36 37 38 40 42 42 41 40 40 39 38 40 44 44 43 42 41 40 40 40 40 40 40 40 40 40 39 39 38 37 38 38 37 37 37 37 37 37 37 38 39 41 42 42 42 43 43 43 43 44 45 47 49 50 51 52 54 55 57 59 60 61 62 62 64 65 65 66 65 65
54 52 49 46 43 41 38 38 37 36 34 35 36 38 39 39 40 41 42 42 42 41 41 41 41 42 45 47 47 45 44 42 41 41 41 40 40 40 40 40 39 39 39 38 38 39 38 38 38 37 37 37 37 38 39 41 42 43 44 44 44 44 44 44 45 46 48 50 50 52 54 55 57 59 61 62 62 62 63 64 65 66 66 66 66
52 49 45 42 40 39 37 36 36 34 34 35 36 38 39 39 39 40 41 41 41 41 41 43 44 46 49 49 49 48 47 45 43 41 40 41 41 40 39 39 38 39 39 40 40 40 39 39 37 36 36 36 37 39 41 43 44 45 45 45 45 44 45 45 46 47 48 50 52 54 56 58 59 60 62 63 63 64 64 64 65 65 66 66 66
49 45 41 40 39 37 35 34 34 33 33 34 35 36 38 38 39 40 41 40 40 41 43 45 47 49 51 51 51 51 50 49 45 42 41 41 41 40 39 38 38 39 40 41 41 41 41 39 37 36 35 36 39 41 43 45 46 46 46 45 45 45 45 46 47 48 49 52 54 56 58 59 60 61 63 64 64 64 64 64 65 66 66 67 68
45 41 39 39 38 35 33 33 34 33 33 34 36 37 38 39 40 41 40 40 40 43 45 47 49 51 52 51 52 52 52 50 46 42 41 42 42 40 39 39 39 40 41 42 42 42 42 40 38 37 38 39 42 45 47 48 47 46 45 45 45 45 45 46 47 49 51 53 55 57 58 60 61 62 63 63 63 64 64 65 66 67 67 69 70
42 39 37 38 36 33 32 33 34 34 34 35 36 38 40 41 41 41 41 40 42 44 46 48 50 50 50 50 51 51 50 48 45 43 44 45 44 42 40 40 41 41 42 42 43 42 42 41 40 41 41 42 45 48 50 49 46 45 45 45 45 45 45 46 48 50 51 53 55 57 58 60 61 61 62 62 63 64 65 66 67 68 69 70 71
40 38 37 37 35 33 33 34 34 35 34 36 38 40 42 42 43 43 42 42 43 45 46 46 47 47 48 49 49 47 47 47 46 45 46 46 44 42 42 42 43 43 43 43 42 42 42 42 42 44 45 46 48 51 52 49 45 45 44 45 45 45 45 46 49 50 52 54 55 57 58 59 60 61 62 63 64 65 67 68 69 70 71 71 70
38 37 37 36 34 33 33 34 35 35 35 37 40 42 43 44 44 44 44 44 45 45 45 46 47 48 49 49 48 48 48 47 46 47 48 46 44 43 44 44 44 43 43 42 42 42 43 44 45 47 47 49 52 53 51 47 45 45 44 44 44 44 46 47 49 51 53 54 56 57 58 59 60 61 63 64 66 67 68 69 70 71 71 70 69
38 37 37 35 34 33 34 35 35 36 37 39 41 43 44 45 46 47 46 46 47 47 47 48 49 49 48 48 49 51 50 47 48 51 53 48 42 42 42 43 43 42 41 42 43 43 44 45 46 47 49 51 53 51 48 46 45 45 44 44 44 44 46 48 50 52 54 55 56 58 59 60 61 63 64 66 67 68 69 70 70 70 70 69 67
38 38 37 35 34 34 34 35 36 37 39 41 43 44 45 46 47 46 45 46 46 45 46 46 46 47 48 49 51 52 51 52 55 56 52 45 40 41 42 42 42 41 42 43 44 44 45 46 47 48 51 52 51 48 46 45 45 44 44 43 44 45 47 49 51 52 54 56 57 58 59 61 63 64 66 67 68 68 69 70 70 69 68 67 65
38 38 38 36 35 35 35 36 37 38 41 43 44 46 46 46 47 46 44 43 44 45 46 46 47 49 51 52 52 53 54 54 54 50 44 41 42 44 44 44 43 43 43 44 45 45 47 48 49 51 51 50 47 45 44 44 44 44 43 44 45 46 48 49 51 53 55 57 58 59 61 62 64 65 66 67 68 68 69 68 68 67 66 65 64
39 39 39 38 37 36 36 37 38 40 43 44 45 46 45 46 47 47 46 47 49 50 49 49 50 50 52 53 52 50 49 46 43 40 39 41 45 48 48 47 46 45 45 45 45 47 48 49 50 51 50 47 45 43 43 44 44 43 44 45 46 48 49 50 52 54 56 57 59 60 62 63 64 65 66 67 68 68 68 67 66 65 64 64 63
40 40 39 38 38 37 37 38 40 42 44 45 45 46 46 46 47 45 44 45 46 46 45 47 49 49 51 51 48 45 44 41 39 40 42 44 51 54 52 49 47 46 46 46 47 48 50 50 51 49 47 44 43 42 43 43 44 44 45 47 48 49 50 52 54 55 57 58 59 60 62 63 64 65 66 67 67 67 67 66 65 64 63 63 62
42 40 39 39 38 38 38 39 41 44 45 44 45 45 44 44 44 43 42 41 42 44 46 48 48 49 50 48 46 48 49 47 46 46 47 50 57 58 53 49 47 47 48 48 49 49 50 49 48 46 44 42 42 42 43 43 45 46 47 48 50 51 52 53 55 56 57 58 59 60 62 63 64 66 66 67 67 66 66 66 65 64 63 63 63
42 40 39 38 39 39 39 40 42 44 43 41 42 42 41 42 43 43 44 44 46 47 46 47 49 49 47 46 51 56 57 55 54 53 53 59 62 57 51 48 48 49 49 48 48 47 47 46 45 43 42 42 42 42 43 44 46 48 49 50 51 52 53 54 55 57 58 59 60 61 62 64 65 66 66 66 66 66 66 66 65 65 65 64 64
43 40 39 39 40 40 39 39 42 44 42 40 41 41 40 41 41 42 43 44 45 47 46 45 44 45 47 52 59 60 55 52 52 53 56 59 56 51 48 48 49 48 47 46 45 44 44 44 43 42 42 42 43 44 45 47 48 49 49 51 51 52 54 55 56 57 58 60 61 62 63 64 65 66 66 66 66 66 66 66 66 66 66 66 65
43 41 40 41 42 39 36 36 38 43 43 41 41 41 41 41 41 43 45 45 45 46 43 39 40 46 53 57 58 55 50 47 50 53 54 51 50 51 50 49 47 45 44 43 43 44 44 44 42 42 43 44 45 46 48 49 49 49 50 51 52 53 54 55 57 58 59 60 62 63 64 65 66 66 66 66 66 66 66 66 66 67 66 66 65
44 43 43 44 42 39 36 35 39 44 46 44 42 42 45 47 47 47 49 48 47 48 44 40 45 52 56 56 55 54 50 49 54 57 54 52 54 54 50 46 44 42 42 43 43 44 44 44 44 44 44 45 47 48 50 50 50 50 51 53 54 54 55 56 58 59 60 62 63 64 65 66 66 66 65 66 66 66 66 67 67 66 66 66 66
46 45 46 45 42 40 38 37 43 48 47 48 47 47 49 50 49 50 51 49 45 43 44 46 50 55 57 56 55 54 53 55 59 59 56 55 54 49 44 42 41 42 42 43 43 44 45 45 46 46 46 47 49 50 50 50 51 52 54 55 56 56 56 58 59 60 62 63 64 65 66 66 65 65 66 66 67 67 67 67 66 66 66 67 66
47 47 48 46 42 41 38 37 46 51 49 48 49 51 52 52 53 54 54 51 44 44 51 55 56 58 60 56 53 54 57 59 58 55 53 52 48 44 42 42 42 42 43 43 45 46 47 48 48 48 49 50 50 50 51 51 53 55 56 56 56 57 58 60 61 62 63 64 65 65 65 65 65 66 67 67 67 67 67 67 67 67 67 67 67
48 49 49 45 41 40 38 38 47 53 50 49 51 53 55 56 57 58 57 56 52 54 59 58 54 55 55 53 52 54 55 53 51 50 49 46 44 43 43 43 43 43 44 46 47 48 49 50 49 50 50 51 51 51 52 54 56 57 57 57 58 59 61 62 63 64 64 65 65 65 65 65 66 67 68 68 68 68 68 68 68 68 68 68 68
49 49 49 46 40 39 40 43 48 51 50 52 54 56 59 60 61 61 61 61 60 61 60 52 49 50 49 47 47 47 46 47 49 49 46 45 45 45 45 45 45 46 47 47 48 49 50 50 50 50 51 51 52 53 55 57 58 58 58 59 60 61 62 63 64 65 65 65 64 65 65 66 67 68 68 68 69 69 69 69 69 69 69 69 69
50 50 50 48 44 43 45 47 49 51 53 56 57 59 61 61 62 61 61 62 61 61 58 52 49 49 46 44 42 43 47 51 52 49 47 48 48 48 47 47 47 47 47 48 50 50 50 50 50 50 51 53 54 56 57 58 59 59 59 60 62 63 64 64 65 65 65 65 65 65 66 67 67 68 69 69 69 70 70 70 70 70 70 70 71
51 51 51 50 49 49 51 52 52 53 56 58 59 60 61 61 61 60 60 59 58 57 55 50 48 45 44 44 44 48 53 54 52 50 50 50 49 47 47 46 46 47 48 50 50 50 49 49 50 52 53 55 57 58 59 59 59 60 61 62 63 64 64 65 65 65 65 65 66 66 67 67 68 68 69 69 69 70 71 71 71 71 71 71 71
Wind_Direction
284 284 284 285 288 290 291 298 311 317 322 326 328 330 328 327 326 325 327 329 329 328 327 325 325 326 326 326 326 326 326 326 327 327 327 327 326 326 325 325 322 320 318 317 316 316 317 318 318 317 317 317 316 316 313 310 309 306 302 303 309 313 314 312 311 311 312 312 310 310 310 311 311 310 310 310 311 312 314 318 320 322 322 319 313
282 281 283 286 289 290 292 302 312 316 320 324 326 328 327 325 324 324 325 328 328 326 325 324 324 325 326 326 326 327 327 327 327 327 327 328 328 329 329 328 326 324 322 322 322 323 324 324 323 322 321 320 320 318 315 312 308 301 298 303 305 305 305 305 311 320 323 324 325 325 325 323 320 316 314 315 316 320 331 340 342 341 339 337 334
277 280 284 288 290 293 299 307 312 315 318 322 324 326 326 323 321 322 324 326 326 324 324 323 323 324 325 325 327 328 329 329 328 328 328 329 330 332 332 331 330 328 327 327 327 328 329 328 327 326 324 322 322 320 315 311 302 290 294 297 298 298 299 308 323 334 339 343 347 348 344 334 325 318 313 311 312 323 334 340 341 341 340 339 340
275 279 287 292 294 299 305 308 310 313 317 320 323 324 324 321 320 321 323 324 324 322 323 323 323 324 324 326 328 330 331 331 330 330 330 330 330 330 330 331 332 332 331 331 331 332 332 331 330 328 326 324 323 320 313 301 283 280 287 290 292 294 300 319 341 349 1 14 24 40 61 74 66 43 12 350 341 342 340 339 339 342 344 343 343
275 281 290 295 299 302 305 306 310 314 316 320 322 322 322 319 318 320 321 322 321 321 322 322 323 323 324 326 331 334 335 336 335 333 331 329 328 327 328 331 334 335 335 335 334 334 334 333 332 330 328 325 323 317 302 276 264 275 282 289 292 295 306 342 12 38 68 87 102 109 112 108 90 50 16 2 352 347 343 339 340 342 345 344 343
276 282 289 295 299 300 303 307 313 315 316 319 321 320 319 317 317 318 319 320 320 321 321 322 323 323 323 327 335 341 342 341 339 335 333 332 331 333 337 340 342 342 340 339 338 337 336 335 334 333 331 327 323 311 277 254 264 275 282 287 290 294 307 72 123 131 129 126 124 125 122 74 13 357 350 345 341 338 335 334 336 340 342 343 341
277 281 288 293 295 299 306 311 314 313 315 318 319 318 318 316 316 316 318 319 320 320 320 321 322 321 322 328 338 348 347 346 345 343 344 345 347 351 354 355 353 351 348 346 343 341 339 337 335 335 334 329 322 296 251 250 267 274 282 284 287 284 231 170 172 172 172 173 175 202 273 309 319 327 329 330 330 330 330 331 335 338 339 339 338
278 282 287 291 295 303 308 309 310 311 314 317 317 317 316 315 314 316 317 319 319 318 319 320 321 320 321 327 336 346 347 350 357 360 3 6 8 10 10 9 7 3 359 354 350 346 342 340 339 339 337 331 318 277 237 249 269 272 281 279 278 252 205 196 195 201 212 224 243 264 283 294 302 310 316 320 322 325 328 332 334 335 334 333 334
279 282 285 290 297 302 304 305 308 311 314 315 316 315 315 313 313 315 317 319 317 317 319 320 321 319 319 322 325 336 342 351 2 10 16 19 20 19 18 17 14 11 6 1 356 351 347 344 343 342 339 332 314 263 232 245 269 274 280 273 264 235 215 210 209 219 236 251 262 270 277 285 294 302 310 316 320 323 327 330 330 329 328 330 332
276 281 284 288 295 298 300 304 308 311 312 313 314 314 313 312 312 314 317 317 315 317 319 320 321 318 317 315 314 325 337 346 359 10 18 21 21 19 17 16 14 12 9 6 2 357 352 349 347 346 341 333 313 262 233 240 266 277 278 272 259 238 227 217 218 230 245 256 262 266 273 282 291 300 309 315 320 323 324 324 324 324 325 327 330
273 279 280 284 291 296 300 305 308 310 311 311 312 312 311 310 311 314 316 314 314 317 319 321 321 318 315 312 310 316 330 341 352 3 14 18 17 15 13 12 11 11 10 8 5 3 359 353 350 349 345 334 314 268 240 239 254 280 283 277 268 251 242 236 238 244 252 259 265 272 279 285 291 300 308 315 320 321 320 319 319 321 323 326 327
271 273 275 281 289 296 300 304 308 308 308 309 310 310 309 308 309 312 314 313 315 318 319 321 320 319 316 314 312 308 322 337 343 353 6 9 7 3 2 2 4 7 9 10 8 6 3 359 354 351 348 338 317 277 252 247 250 267 280 282 279 274 269 267 268 272 277 283 288 292 296 298 299 303 308 313 316 316 316 316 317 320 322 323 323
267 268 273 278 286 295 299 303 306 306 306 307 307 308 308 307 308 311 313 312 315 317 318 319 319 319 319 319 317 305 311 329 335 342 350 353 352 351 350 350 352 357 3 9 11 9 6 3 358 354 351 343 324 287 263 259 259 263 271 278 282 284 285 286 289 291 294 298 300 302 305 306 305 304 307 311 313 314 316 317 318 320 321 320 319
265 267 270 275 284 293 298 301 305 305 304 305 306 305 306 306 307 309 311 310 312 313 314 316 317 317 319 320 317 309 307 317 324 329 334 338 340 342 343 343 344 347 352 358 5 8 7 5 2 358 354 347 333 300 273 271 274 274 276 278 282 286 290 293 296 299 302 304 306 307 308 309 308 308 308 311 313 316 319 319 320 321 320 318 317
266 268 270 275 284 292 295 299 305 302 301 303 303 304 305 305 306 307 308 307 307 307 310 313 314 315 317 317 315 315 314 316 319 320 324 327 331 335 338 340 341 343 346 348 351 357 1 3 2 1 357 350 340 316 288 282 286 290 291 290 291 292 295 298 301 304 307 308 310 310 311 310 310 310 310 312 314 317 318 319 320 320 319 317 316
266 268 272 278 285 290 293 298 303 301 299 301 300 302 304 304 305 305 305 304 302 301 305 309 309 311 313 315 316 319 320 319 319 320 321 324 328 331 332 335 337 339 342 343 344 348 353 357 359 359 358 352 343 327 304 292 295 300 303 304 303 302 302 303 305 306 307 308 310 312 312 312 310 310 309 310 311 313 315 316 317 316 317 316 316
266 269 273 278 284 288 291 296 302 299 297 298 299 301 302 304 305 306 305 301 298 296 300 304 304 305 307 311 316 319 320 318 319 320 322 324 326 328 327 328 331 333 335 338 339 342 346 350 353 354 355 354 347 334 316 303 301 305 309 311 310 309 307 307 307 307 307 309 311 312 312 312 311 310 308 308 308 310 312 312 313 313 314 315 316
266 268 271 278 285 288 290 294 300 297 294 296 297 299 300 302 304 307 310 302 295 294 297 299 300 300 302 306 311 314 314 314 315 317 319 321 322 323 323 324 326 328 331 334 335 336 339 344 347 348 349 350 348 341 327 313 307 309 312 314 313 312 311 310 309 308 308 309 309 310 310 310 309 308 308 307 307 308 309 309 310 310 312 313 314
266 267 271 279 286 288 289 293 297 295 293 294 295 299 299 298 300 303 311 308 298 295 297 298 298 298 299 302 306 309 309 309 311 313 315 317 318 319 320 321 323 325 327 330 331 332 334 338 342 343 343 344 344 342 335 324 315 313 315 316 316 314 313 312 310 309 309 308 308 308 307 307 307 307 306 306 306 307 307 307 308 309 311 312 313
265 267 272 280 286 288 290 292 295 294 292 292 295 300 298 293 292 297 304 308 301 294 293 295 297 298 298 298 301 303 304 306 309 311 313 314 315 317 318 318 320 322 325 327 327 329 331 333 336 338 338 338 338 339 337 330 322 318 318 318 318 316 314 312 311 309 308 308 306 305 305 306 305 306 305 305 305 305 305 306 307 309 310 311 313
266 268 274 281 286 288 290 293 294 293 290 291 294 299 298 289 288 292 299 304 301 293 290 293 297 298 299 298 299 300 302 305 308 311 312 313 314 315 315 316 317 319 321 323 323 324 327 329 332 334 334 333 333 333 334 331 326 322 320 320 319 317 315 312 310 309 308 307 303 303 304 304 305 306 305 304 304 305 305 305 306 308 309 311 312
267 271 275 280 285 288 291 293 293 291 288 291 294 295 296 290 286 291 298 301 299 295 293 294 297 298 300 301 302 304 306 309 310 311 312 312 313 313 313 313 315 317 318 319 320 320 323 326 327 329 330 329 329 329 330 329 327 324 322 320 319 317 314 312 310 309 309 305 301 302 305 304 305 306 305 305 305 306 306 306 307 307 309 310 310
270 273 276 280 284 288 291 292 293 292 288 290 294 293 293 289 286 292 297 296 293 293 292 293 296 299 302 304 306 307 309 309 309 310 311 310 310 311 311 312 313 314 315 316 317 318 320 322 324 325 325 325 325 326 327 326 325 324 322 320 319 316 314 312 310 309 307 303 300 303 305 304 305 306 306 306 306 307 307 307 307 308 308 309 309
272 275 278 281 284 287 289 290 292 292 289 291 293 291 289 286 286 290 289 286 286 287 290 294 298 301 304 305 306 307 307 307 307 308 309 308 308 309 310 311 312 312 313 314 314 315 317 319 320 321 322 322 322 323 324 324 324 323 322 320 318 316 314 312 309 307 305 301 301 304 304 305 306 307 307 306 307 308 308 307 307 308 308 308 308
274 276 279 282 284 287 288 287 290 291 289 290 291 286 283 282 283 283 280 280 282 286 289 294 298 302 304 306 307 307 307 307 307 308 308 307 308 308 309 310 310 310 310 310 311 312 313 315 316 317 318 319 319 321 321 321 322 321 320 319 317 315 314 311 309 307 304 301 302 304 305 305 306 307 307 307 307 308 308 307 308 308 308 308 308
275 277 280 282 284 285 285 285 287 288 287 288 285 280 277 278 280 281 282 284 286 288 290 293 297 301 304 307 309 310 310 310 309 308 308 307 307 308 308 309 310 308 307 308 308 309 310 311 312 313 315 316 317 318 319 319 320 319 318 317 315 314 312 310 308 306 303 300 302 305 306 306 306 307 307 306 307 307 307 307 307 307 307 307 308
276 277 280 282 283 283 282 283 283 283 282 280 276 274 274 278 282 286 288 289 290 291 291 293 296 299 303 307 309 310 310 311 310 309 308 308 308 308 308 309 309 307 306 305 305 306 308 308 309 310 312 313 314 316 317 318 318 317 317 315 314 312 310 308 306 304 301 300 302 305 305 305 306 306 306 306 306 306 307 307 307 307 307 307 307
275 277 280 281 281 280 280 280 279 278 276 272 268 269 272 277 282 286 288 290 291 291 291 292 294 297 301 306 307 308 309 310 311 310 309 309 309 308 308 308 307 305 304 303 302 304 305 305 306 308 309 311 312 314 316 316 316 315 314 313 312 310 308 306 305 304 301 302 304 305 305 305 305 305 305 305 306 306 306 306 306 306 306 306 306
275 278 280 279 278 278 279 278 276 274 272 268 265 266 270 275 281 285 287 289 290 291 290 289 292 297 303 305 307 308 308 309 310 309 308 308 308 308 307 306 305 304 302 301 300 302 302 303 304 305 307 309 311 313 315 315 314 313 312 311 310 308 307 305 304 303 302 303 304 304 304 304 304 304 304 304 305 305 305 305 304 304 304 305 305
275 277 277 275 275 276 277 276 274 273 271 269 267 269 273 277 281 284 287 288 289 289 288 288 292 298 302 304 304 306 307 308 308 307 306 306 307 306 305 304 302 301 300 299 299 300 300 300 301 303 305 307 310 313 314 313 312 311 310 309 308 307 306 304 303 303 303 303 303 303 303 303 303 303 303 303 303 304 304 303 303 303 303 304 304
274 274 273 272 273 274 275 274 274 273 271 270 271 272 274 277 281 284 287 288 288 287 286 289 293 297 299 300 302 304 306 306 306 305 304 304 305 304 302 301 300 299 299 298 299 298 298 298 298 300 303 306 310 313 313 312 311 309 308 307 306 306 304 303 303 303 303 302 301 300 300 300 300 301 301 302 302 302 303 303 303 303 304 304 304
271 271 269 269 272 272 272 271 272 272 271 271 272 273 274 277 280 283 286 286 285 285 287 289 292 294 296 299 302 303 304 304 304 304 304 304 304 302 300 298 298 298 298 298 298 297 296 295 294 297 300 305 309 312 313 311 309 307 306 305 305 304 303 302 301 301 300 299 298 298 298 299 299 299 300 301 302 302 303 303 304 304 304 304 305
268 268 267 268 270 270 268 268 269 270 271 270 271 271 273 275 278 281 284 284 284 285 288 290 292 294 297 300 302 303 303 302 303 305 306 305 303 300 298 297 298 298 297 297 297 296 295 293 292 295 299 303 308 311 311 309 306 305 304 304 303 303 302 300 299 298 297 297 297 297 297 298 298 299 300 302 302 303 303 304 304 304 304 304 304
267 266 266 267 269 269 267 267 267 269 270 270 269 269 271 274 276 280 282 284 286 288 289 292 294 295 299 303 304 303 303 302 302 303 306 306 301 298 297 297 298 297 296 296 295 295 294 292 292 295 297 302 306 309 309 306 304 304 303 303 302 302 300 298 297 297 297 297 297 297 298 298 299 300 302 302 303 303 304 304 304 304 303 303 302
265 264 265 267 268 267 267 267 268 269 270 269 268 269 271 273 276 279 282 284 287 289 290 293 295 295 300 303 302 301 301 301 302 302 306 306 300 297 296 297 297 296 294 294 294 294 294 293 293 295 296 300 304 306 306 303 303 303 302 302 301 300 298 297 296 296 297 297 298 298 299 300 301 302 303 303 304 304 304 304 303 303 302 302 302
263 263 264 266 266 265 265 266 268 269 269 268 268 269 271 272 275 278 281 283 286 287 289 292 294 294 298 300 297 297 298 300 302 303 305 304 299 297 297 298 297 294 293 293 294 294 294 295 295 295 297 299 302 303 302 301 302 302 301 301 300 299 297 296 297 297 297 298 299 300 301 302 303 303 303 303 303 303 303 303 302 302 302 302 303
261 262 264 264 264 264 264 265 267 268 267 267 267 268 270 272 275 279 283 285 286 288 290 293 294 293 294 295 295 296 296 299 302 301 301 300 299 300 300 299 296 293 292 292 292 293 294 296 296 297 299 301 301 301 300 300 301 300 300 300 299 297 297 297 298 298 299 299 300 301 302 302 303 303 303 303 303 302 302 302 301 302 302 303 303
260 262 263 263 264 264 264 265 266 266 265 265 266 268 270 273 276 279 282 283 285 288 290 291 291 290 289 292 295 296 297 300 301 298 296 298 300 303 303 300 296 292 292 291 291 292 294 296 296 298 300 301 300 299 299 299 299 299 299 299 298 299 299 299 300 300 300 300 301 302 302 302 302 302 302 302 302 301 301 301 301 302 303 303 303
259 261 263 264 265 265 266 266 265 265 265 265 267 270 273 275 277 279 279 281 283 286 287 287 287 287 287 291 295 297 302 303 299 294 294 298 304 306 304 300 295 293 293 293 293 293 295 296 297 298 299 298 298 298 298 298 298 298 298 299 300 301 301 301 301 301 301 301 302 302 301 301 301 302 301 301 301 301 301 301 302 302 303 303 303
259 261 263 265 266 266 266 265 265 265 265 268 271 273 275 276 277 280 282 282 283 286 288 287 286 287 291 294 295 299 306 303 296 292 291 298 306 306 302 299 295 294 294 295 294 294 294 296 297 298 297 296 296 297 297 297 297 298 299 301 301 302 302 302 302 302 301 301 301 301 301 301 301 301 301 301 301 301 302 302 303 303 303 303 303
259 261 263 265 266 266 264 264 264 266 269 273 275 276 276 274 275 278 280 279 281 284 287 290 291 292 294 295 295 299 302 299 294 290 288 295 302 302 298 296 295 294 295 295 294 294 295 296 296 295 294 295 295 295 296 296 298 299 300 301 302 302 303 303 302 301 301 301 301 301 301 301 301 301 301 302 302 303 303 303 303 303 303 303 303
260 261 263 265 265 263 262 265 267 269 272 274 273 274 274 274 275 276 275 276 279 282 288 294 297 295 293 292 294 297 297 294 290 288 287 291 297 298 295 295 295 295 295 295 294 295 295 296 294 293 293 294 294 294 295 296 298 300 301 302 302 302 302 302 302 301 301 301 301 302 301 301 302 302 302 303 303 303 304 304 304 304 304 304 304
259 261 262 262 260 260 264 268 270 270 271 269 270 274 275 274 275 275 275 277 278 281 288 295 295 291 289 291 293 295 294 291 287 286 288 290 293 297 296 296 296 296 295 295 296 296 295 293 292 292 293 294 294 294 295 298 299 301 301 302 302 301 301 302 301 301 301 301 302 302 302 302 302 303 303 303 304 304 304 304 304 304 304 304 304
258 259 259 257 257 261 266 266 266 268 269 269 270 274 275 273 273 275 277 278 277 280 284 285 285 284 287 292 294 293 292 290 287 289 291 291 294 297 297 298 297 296 296 296 296 295 292 291 292 293 294 294 294 295 297 299 300 301 301 301 302 301 301 301 301 301 302 302 302 302 302 303 303 304 304 304 304 304 304 304 304 304 304 304 304
257 257 256 256 258 261 261 261 262 265 269 270 270 271 273 273 274 277 281 282 281 282 280 277 280 284 288 291 291 290 289 286 287 289 290 291 294 298 298 297 297 296 296 295 294 293 292 292 293 293 294 294 295 296 298 300 300 301 301 302 302 302 301 301 301 302 302 302 303 303 304 304 304 304 304 304 303 304 304 304 303 303 304 304 304
255 255 255 256 258 259 259 261 263 264 265 268 269 269 271 272 273 277 283 286 288 287 284 283 285 286 289 290 287 285 282 281 285 287 288 291 296 298 298 297 297 296 295 294 293 293 293 293 293 293 294 294 296 297 299 300 301 302 303 303 303 302 302 302 303 303 303 304 304 304 305 305 305 304 304 304 304 304 304 304 304 304 304 304 304
254 254 255 256 257 259 260 260 262 264 265 266 268 269 269 271 273 277 281 282 282 281 282 285 286 285 289 289 284 279 279 280 284 287 289 293 297 298 297 297 296 294 293 293 293 293 293 293 293 293 293 295 297 298 300 301 302 304 304 303 302 303 303 303 304 304 304 305 305 305 305 305 305 305 305 305 305 304 304 304 304 305 305 305 305
254 254 255 256 256 259 259 255 258 264 267 265 265 267 270 272 275 277 279 279 277 278 282 283 282 284 288 287 280 276 277 280 284 288 291 294 296 296 295 294 293 292 292 292 293 293 292 292 292 293 294 297 299 300 302 303 304 304 303 302 303 303 304 304 305 305 305 305 305 305 305 305 305 306 306 305 305 305 305 306 305 305 306 306 306
254 255 255 255 253 254 254 254 258 263 265 265 265 267 270 273 275 276 278 278 278 280 282 281 280 284 285 281 277 275 276 281 287 290 292 294 294 293 291 290 290 291 292 292 293 292 292 292 293 295 297 300 301 302 304 304 304 303 303 303 303 304 305 305 305 305 305 306 306 306 306 306 307 307 307 307 307 307 307 306 307 307 307 307 307
254 255 256 255 253 252 252 255 259 261 262 265 267 269 270 272 274 276 277 279 279 280 281 280 280 282 279 275 274 275 279 285 288 290 291 292 292 291 289 289 290 292 292 292 292 292 292 293 295 297 300 302 303 303 304 304 303 303 303 303 304 305 306 306 306 306 306 307 307 307 307 307 308 308 308 308 307 307 308 308 308 308 308 308 307
255 256 257 257 256 255 256 258 260 261 263 266 268 269 271 273 275 276 278 279 280 280 280 279 277 274 270 268 269 273 279 283 285 287 289 290 290 290 290 290 291 292 292 291 292 292 294 296 298 300 302 303 303 303 303 303 302 303 304 305 306 306 306 307 307 307 307 308 308 309 309 309 309 308 308 308 308 309 309 309 309 309 309 308 307
Height
10910 10910 10909 10909 10908 10908 10907 10906 10905 10903 10901 10900 10898 10897 10895 10893 10891 10890 10889 10889 10888 10887 10885 10884 10883 10881 10880 10878 10877 10875 10874 10873 10872 10871 10869 10868 10866 10865 10863 10862 10860 10858 10857 10855 10854 10852 10850 10849 10848 10846 10845 10844 10842 10841 10840 10839 10838 10837 10836 10835 10835 10834 10833 10832 10831 10830 10829 10829 10828 10827 10826 10826 10825 10824 10823 10822 10821 10820 10819 10818 10817 10816 10816 10815 10814
10908 10908 10907 10907 10906 10906 10905 10904 10902 10901 10899 10898 10896 10895 10893 10891 10889 10888 10887 10887 10887 10885 10883 10882 10881 10879 10877 10876 10874 10873 10872 10871 10870 10869 10868 10866 10864 10863 10861 10860 10858 10856 10855 10853 10852 10850 10848 10847 10846 10844 10843 10842 10840 10839 10838 10837 10836 10836 10835 10834 10833 10832 10831 10831 10830 10829 10828 10827 10827 10826 10825 10824 10823 10822 10821 10820 10819 10818 10817 10816 10815 10814 10813 10813 10812
10906 10905 10905 10905 10904 10903 10902 10901 10900 10898 10897 10896 10895 10893 10891 10889 10888 10886 10886 10886 10885 10883 10881 10880 10879 10877 10876 10874 10872 10871 10870 10869 10868 10867 10866 10864 10863 10861 10860 10858 10856 10855 10853 10851 10850 10848 10847 10845 10844 10842 10841 10840 10839 10837 10836 10836 10835 10834 10833 10832 10832 10831 10830 10829 10828 10828 10827 10826 10825 10824 10823 10823 10822 10821 10820 10819 10818 10817 10816 10815 10814 10813 10811 10810 10810
10904 10903 10903 10903 10902 10901 10900 10899 10897 10896 10895 10894 10893 10891 10889 10887 10886 10884 10884 10884 10883 10881 10880 10878 10877 10875 10874 10872 10870 10869 10868 10867 10866 10865 10864 10862 10861 10860 10858 10856 10854 10853 10851 10849 10848 10846 10845 10843 10842 10841 10839 10838 10837 10836 10835 10834 10833 10833 10832 10831 10830 10829 10829 10828 10827 10827 10826 10825 10824 10823 10822 10821 10820 10820 10819 10818 10816 10815 10814 10813 10812 10811 10810 10809 10808
10902 10902 10901 10901 10900 10899 10897 10896 10895 10894 10893 10892 10890 10889 10887 10885 10884 10882 10882 10882 10881 10879 10878 10877 10875 10874 10872 10870 10869 10868 10867 10866 10864 10863 10862 10860 10859 10857 10856 10854 10853 10851 10849 10848 10846 10844 10843 10842 10840 10839 10838 10837 10836 10834 10834 10833 10832 10831 10830 10829 10829 10828 10827 10827 10826 10826 10825 10824 10823 10822 10821 10820 10819 10818 10817 10816 10815 10814 10813 10812 10811 10810 10808 10807 10806
10900 10900 10899 10899 10897 10896 10895 10894 10893 10892 10891 10890 10888 10887 10885 10883 10882 10880 10880 10880 10879 10877 10876 10875 10874 10872 10870 10869 10868 10867 10866 10865 10863 10862 10860 10858 10857 10855 10854 10852 10851 10849 10847 10846 10844 10843 10841 10840 10839 10837 10836 10835 10834 10833 10832 10831 10831 10830 10829 10828 10827 10826 10826 10825 10825 10825 10824 10823 10822 10821 10820 10819 10818 10817 10816 10815 10814 10812 10811 10810 10809 10808 10807 10806 10804
10898 10898 10897 10896 10895 10894 10892 10891 10890 10890 10889 10888 10886 10885 10883 10881 10880 10879 10878 10878 10877 10875 10874 10873 10872 10870 10869 10868 10867 10866 10865 10863 10862 10860 10859 10857 10855 10853 10852 10850 10849 10847 10846 10844 10843 10841 10840 10838 10837 10836 10835 10834 10833 10832 10831 10830 10829 10828 10827 10826 10826 10825 10824 10824 10824 10823 10823 10822 10821 10820 10818 10817 10816 10815 10814 10813 10812 10811 10810 10809 10808 10806 10805 10804 10802
10895 10895 10895 10894 10892 10891 10890 10889 10888 10888 10887 10886 10884 10883 10881 10880 10878 10877 10877 10876 10875 10873 10872 10871 10870 10869 10868 10867 10866 10865 10864 10862 10861 10859 10857 10856 10854 10852 10851 10849 10847 10846 10844 10842 10841 10839 10838 10837 10835 10834 10833 10832 10832 10831 10830 10829 10828 10827 10826 10825 10824 10824 10823 10823 10823 10822 10821 10820 10819 10818 10817 10816 10815 10814 10813 10811 10810 10809 10808 10807 10806 10804 10803 10801 10799
10893 10893 10892 10891 10890 10889 10888 10887 10886 10886 10885 10884 10883 10881 10880 10878 10876 10876 10875 10875 10873 10871 10870 10869 10868 10867 10867 10866 10865 10864 10863 10862 10860 10858 10856 10855 10853 10852 10850 10849 10847 10845 10843 10841 10839 10838 10836 10835 10834 10832 10831 10831 10830 10829 10829 10828 10827 10826 10825 10824 10823 10822 10822 10822 10821 10821 10820 10819 10818 10817 10815 10814 10813 10812 10811 10810 10808 10807 10806 10805 10803 10801 10800 10798 10797
10890 10890 10889 10888 10887 10887 10886 10885 10885 10884 10883 10882 10881 10879 10878 10876 10875 10874 10873 10873 10871 10870 10868 10868 10867 10866 10865 10865 10864 10863 10862 10861 10859 10857 10856 10854 10853 10851 10850 10848 10847 10845 10842 10840 10838 10837 10835 10834 10833 10831 10830 10829 10829 10828 10827 10827 10826 10825 10824 10823 10822 10822 10821 10821 10820 10819 10819 10818 10816 10815 10814 10813 10811 10810 10809 10808 10806 10805 10804 10802 10800 10798 10797 10795 10794
10887 10887 10886 10885 10885 10885 10884 10883 10883 10882 10881 10880 10879 10877 10876 10874 10873 10872 10872 10871 10869 10868 10867 10866 10865 10864 10864 10863 10862 10862 10861 10860 10858 10857 10855 10853 10852 10851 10850 10848 10847 10845 10842 10840 10838 10836 10834 10833 10831 10830 10829 10828 10827 10827 10826 10826 10825 10824 10823 10823 10822 10821 10820 10820 10819 10818 10817 10816 10815 10814 10813 10811 10810 10809 10807 10806 10804 10803 10801 10799 10797 10795 10794 10793 10791
10884 10884 10884 10883 10882 10882 10882 10881 10881 10880 10879 10878 10877 10875 10874 10873 10871 10870 10870 10869 10868 10866 10865 10864 10863 10863 10862 10861 10861 10860 10860 10859 10857 10856 10854 10852 10851 10850 10849 10848 10847 10845 10843 10840 10838 10835 10834 10832 10830 10829 10828 10827 10826 10826 10825 10825 10824 10823 10823 10822 10821 10820 10820 10819 10818 10817 10816 10815 10814 10813 10812 10811 10809 10807 10805 10803 10802 10800 10798 10796 10793 10792 10791 10790 10788
10881 10881 10881 10880 10880 10880 10880 10879 10879 10878 10877 10876 10875 10874 10872 10871 10870 10869 10868 10867 10866 10864 10863 10863 10862 10861 10861 10860 10860 10859 10858 10857 10856 10854 10853 10851 10850 10849 10849 10848 10847 10845 10843 10841 10838 10836 10833 10832 10830 10828 10827 10826 10825 10825 10824 10824 10823 10823 10822 10821 10820 10819 10819 10818 10817 10816 10815 10814 10813 10812 10811 10810 10808 10806 10804 10801 10799 10797 10794 10792 10791 10790 10788 10786 10784
10878 10878 10878 10878 10878 10878 10878 10877 10877 10876 10875 10874 10873 10872 10870 10869 10868 10867 10866 10865 10864 10863 10862 10861 10860 10860 10859 10859 10858 10858 10857 10856 10855 10853 10852 10850 10849 10848 10848 10847 10846 10845 10843 10841 10838 10836 10834 10832 10830 10828 10826 10825 10824 10824 10823 10822 10822 10821 10821 10820 10819 10818 10817 10817 10816 10815 10813 10812 10811 10810 10809 10807 10805 10803 10801 10798 10796 10793 10791 10789 10788 10787 10785 10782 10780
10875 10875 10875 10875 10875 10876 10876 10875 10875 10874 10873 10872 10871 10870 10868 10867 10866 10864 10864 10863 10862 10861 10860 10860 10859 10858 10858 10858 10857 10857 10856 10855 10854 10852 10851 10849 10848 10847 10846 10845 10845 10844 10842 10840 10838 10836 10834 10832 10830 10828 10826 10824 10823 10822 10822 10821 10820 10820 10819 10818 10818 10817 10816 10815 10814 10812 10811 10810 10808 10807 10805 10804 10802 10799 10797 10794 10792 10790 10788 10787 10786 10784 10781 10778 10776
10872 10872 10872 10873 10873 10873 10873 10873 10873 10872 10871 10870 10869 10868 10867 10865 10864 10862 10861 10861 10860 10859 10859 10858 10857 10857 10856 10856 10856 10855 10855 10854 10853 10851 10850 10848 10847 10845 10844 10843 10843 10842 10841 10839 10837 10835 10833 10831 10830 10828 10826 10824 10822 10821 10820 10820 10819 10818 10817 10817 10816 10815 10814 10813 10811 10810 10808 10807 10805 10803 10801 10799 10797 10795 10792 10790 10788 10787 10786 10784 10782 10780 10777 10774 10772
10869 10869 10869 10870 10871 10871 10871 10871 10871 10870 10869 10868 10867 10866 10864 10863 10862 10860 10859 10858 10858 10857 10857 10856 10855 10855 10854 10854 10854 10854 10853 10852 10851 10850 10848 10847 10845 10843 10842 10841 10840 10840 10839 10837 10836 10834 10832 10830 10829 10827 10825 10823 10821 10820 10819 10818 10817 10816 10815 10814 10813 10812 10811 10810 10808 10807 10805 10803 10801 10799 10797 10795 10793 10791 10788 10786 10784 10784 10782 10780 10777 10775 10773 10771 10768
10866 10866 10867 10868 10868 10868 10868 10869 10868 10868 10867 10866 10865 10863 10862 10861 10860 10858 10857 10856 10855 10855 10854 10854 10853 10852 10852 10851 10851 10851 10851 10850 10849 10848 10846 10845 10843 10842 10840 10839 10838 10837 10836 10835 10834 10832 10830 10829 10827 10825 10824 10822 10820 10818 10817 10816 10814 10813 10812 10811 10810 10809 10808 10806 10805 10803 10801 10800 10798 10796 10793 10791 10789 10787 10784 10782 10781 10780 10778 10776 10773 10770 10768 10766 10764
10863 10864 10864 10865 10866 10866 10866 10866 10866 10865 10864 10864 10862 10861 10860 10859 10858 10856 10855 10854 10853 10853 10852 10851 10851 10850 10849 10849 10848 10848 10848 10847 10846 10845 10844 10842 10841 10839 10838 10837 10835 10834 10833 10832 10831 10830 10828 10826 10825 10823 10822 10820 10819 10817 10815 10813 10812 10810 10809 10808 10807 10806 10804 10803 10801 10799 10798 10796 10794 10792 10790 10787 10785 10783 10781 10778 10777 10776 10774 10771 10769 10766 10763 10761 10759
10860 10861 10861 10862 10862 10862 10863 10863 10863 10863 10862 10861 10860 10858 10857 10857 10856 10854 10853 10852 10851 10850 10850 10849 10848 10848 10847 10846 10846 10845 10845 10844 10843 10842 10841 10840 10838 10837 10835 10834 10833 10831 10830 10829 10828 10827 10825 10824 10822 10820 10819 10817 10816 10814 10813 10811 10809 10807 10806 10805 10803 10802 10801 10799 10797 10796 10794 10792 10790 10788 10785 10783 10781 10779 10777 10774 10773 10772 10769 10767 10764 10761 10758 10756 10754
10856 10858 10858 10858 10859 10859 10860 10860 10860 10860 10859 10858 10857 10856 10855 10854 10853 10852 10850 10849 10849 10848 10847 10846 10846 10846 10845 10844 10843 10843 10842 10842 10841 10840 10838 10837 10835 10834 10833 10831 10830 10829 10827 10826 10825 10824 10822 10821 10819 10817 10816 10814 10813 10811 10809 10808 10806 10804 10803 10801 10800 10798 10797 10795 10793 10792 10790 10789 10786 10783 10781 10779 10777 10775 10773 10769 10768 10767 10764 10762 10759 10756 10753 10751 10749
10853 10854 10855 10855 10856 10856 10857 10857 10856 10857 10856 10856 10855 10853 10852 10851 10851 10849 10848 10847 10846 10846 10845 10844 10844 10843 10843 10842 10841 10840 10839 10839 10838 10837 10836 10834 10833 10831 10830 10828 10827 10826 10824 10823 10822 10821 10819 10817 10816 10814 10813 10811 10809 10808 10806 10804 10803 10801 10799 10798 10796 10794 10793 10791 10789 10788 10786 10785 10781 10778 10776 10774 10772 10771 10769 10765 10763 10762 10759 10756 10754 10751 10749 10745 10743
10849 10850 10851 10852 10852 10853 10853 10853 10853 10853 10853 10853 10852 10850 10849 10849 10848 10847 10845 10845 10844 10843 10843 10842 10841 10841 10840 10840 10838 10837 10837 10836 10835 10834 10833 10831 10830 10829 10827 10825 10824 10823 10821 10820 10819 10818 10816 10814 10812 10811 10809 10807 10806 10804 10802 10801 10799 10797 10796 10794 10792 10790 10789 10787 10786 10784 10782 10780 10776 10773 10771 10769 10768 10766 10764 10760 10757 10756 10754 10751 10748 10746 10743 10740 10737
10846 10847 10848 10848 10849 10850 10850 10850 10849 10849 10850 10850 10849 10848 10846 10846 10845 10844 10843 10843 10842 10841 10840 10839 10839 10838 10837 10836 10835 10834 10834 10833 10832 10831 10830 10828 10827 10826 10824 10822 10821 10819 10818 10817 10815 10814 10813 10811 10809 10807 10805 10804 10802 10800 10798 10797 10795 10794 10792 10790 10788 10786 10785 10783 10781 10780 10778 10775 10771 10768 10767 10764 10763 10761 10759 10755 10752 10751 10749 10746 10743 10740 10737 10735 10731
10842 10843 10844 10845 10846 10847 10847 10846 10846 10846 10847 10846 10846 10845 10844 10843 10842 10842 10841 10840 10839 10838 10837 10836 10836 10835 10834 10833 10832 10831 10830 10830 10829 10828 10827 10825 10824 10823 10821 10819 10818 10816 10815 10814 10812 10811 10810 10807 10805 10804 10802 10800 10798 10796 10795 10793 10791 10790 10788 10786 10784 10782 10780 10778 10777 10775 10773 10769 10766 10763 10762 10759 10757 10756 10754 10750 10747 10745 10743 10740 10738 10734 10731 10728 10725
10839 10840 10841 10842 10843 10843 10843 10843 10843 10843 10843 10843 10843 10842 10841 10840 10839 10839 10838 10838 10837 10836 10834 10833 10833 10831 10830 10829 10828 10827 10827 10826 10825 10824 10823 10821 10820 10819 10818 10816 10815 10813 10812 10810 10809 10807 10806 10804 10802 10800 10798 10796 10794 10792 10791 10789 10787 10785 10783 10781 10779 10777 10775 10773 10772 10770 10768 10763 10760 10758 10756 10754 10752 10750 10748 10746 10743 10740 10737 10734 10732 10729 10725 10722 10719
10835 10836 10838 10839 10839 10840 10840 10840 10840 10840 10840 10840 10839 10838 10838 10837 10836 10836 10835 10835 10834 10833 10832 10831 10829 10828 10827 10826 10825 10824 10823 10822 10822 10820 10819 10818 10817 10815 10814 10813 10812 10810 10808 10807 10805 10803 10802 10800 10798 10796 10794 10792 10790 10788 10787 10785 10783 10781 10779 10777 10774 10772 10770 10768 10767 10765 10762 10758 10755 10754 10751 10749 10747 10745 10743 10740 10737 10734 10731 10728 10725 10722 10719 10716 10713
10831 10833 10835 10835 10836 10836 10837 10837 10836 10836 10837 10836 10836 10835 10834 10834 10834 10833 10833 10832 10831 10830 10829 10827 10826 10824 10823 10822 10821 10821 10820 10819 10818 10817 10815 10814 10813 10812 10810 10809 10808 10807 10805 10803 10802 10800 10798 10796 10794 10792 10790 10788 10787 10785 10783 10781 10779 10777 10774 10772 10770 10767 10765 10763 10762 10759 10756 10753 10751 10749 10746 10744 10742 10739 10737 10734 10732 10729 10726 10722 10719 10716 10712 10709 10707
10828 10830 10832 10832 10832 10833 10833 10833 10833 10833 10833 10833 10832 10832 10831 10831 10831 10830 10830 10829 10828 10827 10825 10824 10822 10821 10819 10818 10817 10817 10816 10815 10814 10813 10811 10810 10809 10808 10806 10805 10804 10803 10802 10800 10798 10797 10795 10793 10790 10788 10787 10785 10783 10781 10779 10777 10775 10772 10770 10767 10765 10762 10760 10758 10756 10754 10751 10748 10745 10743 10741 10738 10736 10733 10731 10728 10726 10723 10720 10717 10713 10710 10706 10703 10701
10825 10827 10828 10828 10829 10829 10829 10829 10829 10829 10829 10829 10829 10828 10828 10828 10827 10827 10826 10825 10824 10823 10822 10820 10819 10817 10816 10815 10814 10813 10812 10811 10810 10809 10807 10807 10806 10804 10803 10801 10800 10799 10798 10797 10795 10793 10791 10789 10787 10785 10784 10782 10780 10778 10775 10773 10770 10768 10765 10763 10760 10758 10755 10753 10751 10749 10746 10743 10740 10738 10735 10733 10730 10728 10725 10722 10720 10717 10714 10711 10708 10704 10701 10698 10695
10822 10824 10825 10824 10825 10826 10825 10825 10825 10825 10825 10825 10825 10825 10825 10824 10823 10823 10822 10821 10820 10820 10818 10817 10815 10814 10812 10811 10810 10809 10808 10808 10807 10805 10804 10803 10802 10801 10799 10798 10796 10795 10794 10793 10792 10790 10788 10786 10784 10782 10780 10778 10776 10774 10772 10769 10766 10763 10761 10758 10756 10753 10750 10748 10745 10743 10741 10738 10735 10732 10730 10728 10725 10722 10719 10716 10713 10710 10707 10704 10701 10698 10695 10691 10688
10819 10821 10821 10821 10822 10822 10821 10821 10820 10820 10821 10821 10821 10821 10820 10820 10819 10818 10817 10817 10817 10816 10815 10813 10812 10811 10809 10808 10807 10806 10805 10804 10803 10802 10800 10799 10798 10797 10796 10794 10793 10791 10790 10789 10787 10785 10784 10782 10780 10778 10776 10775 10772 10770 10768 10765 10762 10759 10756 10754 10751 10749 10746 10743 10741 10739 10737 10734 10731 10728 10725 10722 10720 10717 10714 10710 10707 10704 10701 10698 10694 10690 10687 10684 10681
10816 10817 10817 10817 10818 10818 10817 10816 10816 10816 10817 10817 10817 10816 10815 10815 10815 10814 10813 10813 10813 10812 10811 10810 10809 10807 10805 10804 10803 10802 10800 10799 10799 10798 10797 10795 10794 10793 10791 10790 10788 10787 10785 10784 10783 10781 10779 10778 10776 10773 10771 10770 10768 10766 10763 10761 10758 10755 10752 10749 10746 10744 10741 10739 10737 10734 10732 10730 10727 10724 10720 10717 10714 10711 10708 10705 10701 10698 10694 10691 10687 10684 10680 10677 10673
10812 10813 10812 10813 10813 10813 10813 10812 10812 10812 10813 10813 10812 10811 10811 10811 10810 10810 10810 10809 10809 10808 10808 10806 10805 10803 10802 10800 10799 10798 10797 10796 10795 10794 10793 10792 10790 10789 10787 10786 10784 10782 10781 10780 10778 10777 10775 10773 10771 10769 10766 10765 10763 10760 10758 10755 10753 10750 10747 10744 10742 10739 10737 10735 10732 10730 10727 10724 10722 10719 10715 10712 10709 10705 10702 10699 10695 10692 10688 10684 10680 10677 10673 10670 10667
10808 10808 10808 10809 10809 10809 10808 10808 10808 10808 10809 10808 10807 10807 10806 10807 10807 10806 10806 10806 10805 10804 10803 10802 10801 10799 10798 10797 10796 10795 10793 10792 10791 10790 10789 10787 10786 10784 10783 10781 10780 10778 10777 10776 10774 10773 10771 10769 10767 10765 10762 10760 10758 10755 10753 10750 10747 10745 10743 10740 10737 10735 10732 10730 10727 10725 10722 10719 10717 10713 10710 10706 10703 10699 10696 10692 10689 10685 10681 10677 10673 10669 10665 10662 10659
10804 10804 10804 10805 10805 10805 10804 10804 10804 10805 10805 10804 10803 10803 10803 10803 10803 10802 10803 10802 10801 10800 10799 10798 10797 10795 10794 10793 10793 10791 10790 10789 10787 10785 10784 10783 10781 10780 10778 10777 10775 10774 10773 10772 10770 10769 10767 10765 10763 10761 10758 10755 10753 10751 10748 10745 10743 10741 10738 10736 10733 10731 10728 10725 10723 10720 10717 10714 10711 10708 10704 10701 10697 10693 10689 10685 10682 10678 10674 10670 10666 10663 10659 10655 10652
10799 10800 10800 10801 10801 10801 10801 10801 10801 10801 10800 10799 10799 10799 10799 10800 10799 10799 10799 10798 10797 10796 10795 10794 10793 10791 10790 10789 10788 10787 10786 10784 10782 10780 10779 10778 10777 10775 10774 10772 10771 10770 10769 10768 10766 10765 10763 10761 10759 10756 10753 10751 10749 10746 10743 10741 10739 10736 10734 10732 10729 10726 10723 10720 10718 10715 10712 10708 10705 10702 10698 10695 10691 10687 10683 10679 10675 10671 10667 10663 10659 10656 10652 10648 10645
10794 10795 10796 10797 10797 10797 10798 10798 10798 10797 10795 10795 10795 10795 10796 10796 10796 10796 10796 10794 10793 10792 10791 10790 10788 10787 10785 10784 10784 10783 10782 10780 10778 10776 10775 10774 10772 10771 10769 10768 10767 10766 10765 10763 10762 10760 10758 10757 10754 10752 10749 10746 10744 10741 10739 10737 10735 10732 10730 10728 10725 10722 10719 10716 10713 10710 10706 10703 10699 10696 10692 10688 10685 10681 10677 10673 10669 10665 10661 10657 10653 10649 10645 10641 10638
10790 10791 10792 10794 10794 10794 10795 10794 10794 10792 10790 10790 10790 10791 10792 10793 10792 10792 10792 10791 10789 10788 10786 10785 10783 10782 10780 10779 10780 10779 10778 10776 10774 10772 10771 10769 10768 10766 10765 10764 10762 10761 10760 10758 10757 10755 10754 10752 10750 10747 10744 10742 10740 10737 10735 10733 10730 10728 10726 10723 10720 10717 10715 10712 10708 10705 10701 10697 10694 10690 10686 10682 10678 10675 10671 10667 10663 10659 10655 10651 10647 10643 10639 10635 10632
10786 10787 10789 10790 10790 10791 10791 10790 10788 10786 10785 10786 10787 10787 10789 10789 10788 10788 10788 10787 10786 10784 10783 10781 10779 10777 10775 10774 10774 10774 10774 10772 10771 10769 10767 10765 10764 10762 10760 10759 10757 10756 10755 10753 10752 10750 10748 10747 10745 10743 10740 10738 10736 10733 10731 10728 10726 10724 10721 10718 10715 10712 10710 10707 10703 10699 10695 10692 10688 10684 10681 10677 10672 10668 10664 10660 10656 10651 10647 10643 10639 10636 10633 10629 10626
10781 10783 10785 10786 10787 10787 10786 10785 10783 10781 10782 10783 10784 10783 10784 10785 10784 10784 10784 10783 10782 10781 10779 10776 10774 10773 10771 10769 10767 10768 10769 10769 10767 10765 10763 10761 10760 10759 10757 10755 10753 10751 10750 10749 10747 10745 10743 10742 10740 10738 10736 10733 10732 10729 10727 10724 10721 10719 10716 10713 10710 10707 10704 10701 10697 10693 10690 10686 10683 10679 10675 10670 10666 10662 10657 10652 10648 10643 10639 10635 10631 10628 10625 10622 10619
10778 10780 10782 10783 10782 10781 10781 10781 10779 10778 10779 10780 10780 10780 10780 10780 10779 10779 10779 10779 10779 10778 10776 10773 10769 10766 10765 10764 10763 10763 10764 10763 10762 10760 10759 10757 10756 10755 10753 10751 10749 10747 10745 10743 10741 10740 10738 10737 10735 10733 10731 10729 10727 10725 10723 10720 10717 10714 10711 10708 10705 10702 10698 10695 10692 10688 10684 10680 10676 10672 10668 10664 10660 10655 10650 10645 10640 10636 10631 10627 10623 10620 10617 10614 10611
10775 10777 10779 10778 10776 10776 10779 10780 10776 10773 10774 10775 10775 10776 10776 10775 10775 10774 10774 10775 10775 10774 10773 10771 10766 10762 10759 10760 10759 10759 10759 10758 10757 10756 10754 10753 10752 10751 10748 10746 10744 10742 10740 10738 10736 10735 10733 10732 10731 10729 10727 10724 10722 10720 10718 10716 10713 10710 10706 10703 10700 10697 10693 10690 10686 10682 10678 10674 10670 10666 10662 10658 10653 10648 10643 10638 10633 10629 10625 10620 10617 10613 10610 10606 10603
10772 10774 10775 10772 10772 10776 10779 10778 10773 10768 10768 10770 10771 10772 10772 10771 10771 10770 10769 10771 10772 10770 10770 10768 10765 10760 10756 10755 10755 10753 10754 10753 10752 10751 10750 10749 10748 10746 10744 10742 10739 10737 10735 10733 10731 10730 10728 10727 10726 10724 10722 10719 10717 10715 10712 10710 10707 10705 10702 10699 10696 10692 10688 10684 10680 10676 10672 10668 10664 10660 10656 10651 10646 10641 10636 10632 10627 10623 10618 10614 10610 10606 10602 10599 10595
10769 10770 10769 10767 10770 10775 10777 10775 10770 10765 10763 10765 10767 10768 10767 10767 10767 10766 10764 10766 10767 10765 10764 10763 10763 10759 10754 10753 10752 10749 10749 10748 10746 10746 10745 10744 10742 10741 10739 10736 10734 10732 10730 10728 10727 10725 10724 10722 10720 10719 10717 10715 10712 10710 10707 10704 10702 10699 10696 10693 10690 10687 10683 10679 10675 10671 10666 10662 10658 10653 10649 10644 10639 10634 10630 10625 10621 10617 10612 10608 10604 10599 10595 10591 10588
10764 10765 10764 10765 10770 10772 10774 10774 10766 10760 10760 10761 10762 10763 10762 10761 10761 10760 10759 10760 10761 10759 10755 10755 10757 10755 10751 10749 10747 10745 10744 10742 10741 10740 10740 10739 10737 10736 10734 10732 10730 10728 10726 10724 10723 10721 10719 10717 10715 10713 10711 10709 10707 10705 10702 10699 10696 10693 10690 10687 10683 10680 10676 10672 10669 10664 10660 10656 10651 10646 10641 10636 10632 10627 10622 10618 10614 10610 10605 10601 10596 10592 10588 10584 10580
10759 10760 10759 10764 10768 10767 10771 10772 10760 10753 10757 10759 10758 10757 10756 10756 10756 10756 10756 10757 10758 10755 10749 10749 10751 10748 10745 10744 10742 10741 10739 10737 10736 10736 10735 10734 10732 10731 10729 10727 10726 10724 10722 10721 10719 10717 10714 10712 10710 10708 10706 10704 10702 10699 10696 10694 10691 10687 10684 10680 10676 10673 10669 10666 10662 10657 10653 10648 10643 10639 10634 10629 10624 10620 10615 10611 10606 10602 10598 10593 10589 10585 10580 10576 10572
10754 10754 10756 10762 10767 10765 10767 10767 10756 10750 10753 10754 10753 10752 10751 10751 10751 10753 10753 10753 10754 10752 10746 10745 10745 10743 10741 10739 10738 10736 10735 10733 10733 10732 10731 10730 10728 10726 10725 10723 10722 10720 10718 10716 10714 10712 10710 10707 10705 10702 10700 10698 10696 10693 10690 10688 10684 10681 10677 10674 10670 10667 10663 10659 10655 10650 10646 10641 10636 10631 10627 10622 10618 10613 10608 10603 10598 10594 10589 10584 10580 10576 10572 10568 10563
10748 10749 10751 10758 10763 10762 10761 10761 10756 10751 10749 10749 10749 10748 10747 10747 10747 10748 10748 10747 10748 10746 10742 10741 10740 10739 10737 10735 10734 10732 10731 10730 10729 10728 10727 10725 10723 10722 10720 10719 10717 10716 10714 10712 10709 10707 10705 10702 10700 10697 10695 10692 10690 10687 10684 10681 10678 10674 10671 10667 10664 10660 10656 10652 10647 10643 10639 10634 10630 10624 10619 10614 10610 10605 10600 10595 10590 10585 10580 10576 10571 10567 10563 10559 10554
10742 10744 10746 10751 10757 10756 10755 10756 10754 10750 10746 10745 10745 10744 10743 10743 10742 10743 10742 10741 10741 10740 10737 10737 10736 10735 10733 10732 10730 10729 10728 10726 10725 10724 10722 10721 10719 10717 10716 10715 10713 10711 10709 10707 10704 10702 10700 10697 10695 10692 10689 10687 10684 10681 10678 10675 10671 10668 10664 10660 10656 10652 10648 10644 10639 10635 10630 10626 10622 10617 10612 10607 10602 10597 10592 10587 10582 10577 10572 10567 10562 10558 10554 10550 10546
10737 10739 10740 10744 10748 10749 10748 10749 10750 10746 10743 10742 10741 10740 10739 10739 10738 10738 10737 10736 10735 10733 10732 10732 10731 10730 10729 10727 10726 10725 10724 10722 10721 10720 10718 10716 10715 10713 10712 10710 10708 10706 10704 10702 10700 10697 10695 10692 10690 10687 10684 10681 10678 10675 10672 10668 10665 10661 10657 10653 10649 10644 10640 10636 10631 10627 10622 10618 10614 10609 10605 10600 10595 10590 10584 10579 10575 10569 10564 10559 10554 10550 10546 10542 10537